sat.trackr.live / text

‹ back to catalog

STARLINK-32776

NORAD 63032 · 2025-034D

PAYLOAD ACTIVE UNKNOWN

§ Identity

Operator
Country
US
Launch date
2025-02-18
Launch site
AFETR
Launch vehicle
Mass (kg)
RCS (m²)

Purposes: comms

External: N2YO · Heavens-Above · Gunter

§ Orbital elements

Epoch: 2026-05-24T18:09:07.413120Z

Period
93.85 min
Inclination
53.1584°
Eccentricity
0.0000908
Mean motion
15.34404316 rev/d
Perigee alt
462.1 km
Apogee alt
463.3 km
Semi-major
6,840.8 km
B*
8.4288e-4
RAAN
264.7548°
Arg perigee
92.2749°
Mean anomaly
267.8358°
Rev number
7,073

§ Raw data

STARLINK-327761 63032U 25034D   26144.75633580  .00028213  00000+0  84288-3 0  99902 63032  53.1584 264.7548 0000908  92.2749 267.8358 15.34404316 70735

JSON: /api/v1/satellites/63032 · /tle

For live sub-satellite position, see the globe view (requires WebGL).

§ Visibility from observer

Set your observer location to see the next 7 days of passes ≥ 10°. The values pass through the URL so the page stays shareable.

No JS? Fill the form by hand. The geolocation button needs JavaScript.